When you browse on this site, cookies collect data to enhance your experience and personalize the content and advertising you see.
Visit our Privacy Policy to learn more. By continuing to use the site, you agree to this use of cookies and data.
  • In Deutschland
  • Länderverzeichnis
  • Für 7 Tage
  • Wassertemperatur
  • Satellitenkarten
  • Wetterkarte
  • Widgets
  • user-avatar
    Anmelden

    Stündliche Wetter Gomel

    Heute, 22 Januar, Dienstag

    Zeit Temperatur Niederschläge Wind Luftdruck Luftfeuchtigkeit
    00:00 -12°C° 0 mm 2 m/S 753 mmHg 96%
    01:00 -12°C° 0 mm 2 m/S 753 mmHg 96%
    02:00 -9°C° 0 mm 3 m/S 753 mmHg 96%
    03:00 -8°C° 0 mm 2 m/S 753 mmHg 96%
    04:00 -8°C° 0 mm 2 m/S 753 mmHg 96%
    05:00 -8°C° 0 mm 2 m/S 753 mmHg 97%
    06:00 -8°C° 0.1 mm 2 m/S 753 mmHg 97%
    07:00 -8°C° 0.1 mm 2 m/S 753 mmHg 97%
    08:00 -8°C° 0.1 mm 2 m/S 753 mmHg 97%
    09:00 -8°C° 0.1 mm 2 m/S 753 mmHg 96%
    10:00 -7°C° 0.1 mm 2 m/S 753 mmHg 95%
    11:00 -8°C° 0.1 mm 3 m/S 753 mmHg 94%
    12:00 -8°C° 0 mm 3 m/S 753 mmHg 94%
    13:00 -7°C° 0 mm 3 m/S 753 mmHg 93%
    14:00 -7°C° 0 mm 3 m/S 753 mmHg 93%
    15:00 -8°C° 0 mm 3 m/S 753 mmHg 93%
    16:00 -7°C° 0 mm 2 m/S 753 mmHg 93%
    17:00 -8°C° 0 mm 2 m/S 753 mmHg 94%
    18:00 -9°C° 0 mm 2 m/S 753 mmHg 94%
    19:00 -9°C° 0 mm 2 m/S 753 mmHg 95%
    20:00 -10°C° 0 mm 2 m/S 753 mmHg 95%
    21:00 -12°C° 0 mm 2 m/S 753 mmHg 96%
    22:00 -13°C° 0 mm 2 m/S 753 mmHg 96%
    23:00 -14°C° 0 mm 2 m/S 753 mmHg 97%

    Morgen, 23 Januar, Mittwoch

    Zeit Temperatur Niederschläge Wind Luftdruck Luftfeuchtigkeit
    00:00 -15°C° 0 mm 2 m/S 753 mmHg 97%
    01:00 -15°C° 0 mm 2 m/S 753 mmHg 96%
    02:00 -16°C° 0 mm 2 m/S 752 mmHg 96%
    03:00 -16°C° 0 mm 2 m/S 752 mmHg 96%
    04:00 -17°C° 0 mm 2 m/S 752 mmHg 96%
    05:00 -18°C° 0 mm 3 m/S 752 mmHg 96%
    06:00 -18°C° 0 mm 3 m/S 752 mmHg 96%
    07:00 -18°C° 0 mm 3 m/S 751 mmHg 96%
    08:00 -17°C° 0 mm 3 m/S 751 mmHg 96%
    09:00 -17°C° 0 mm 4 m/S 751 mmHg 95%
    10:00 -16°C° 0 mm 4 m/S 751 mmHg 94%
    11:00 -14°C° 0 mm 5 m/S 751 mmHg 93%
    12:00 -13°C° 0.1 mm 5 m/S 750 mmHg 92%
    13:00 -12°C° 0.1 mm 5 m/S 750 mmHg 92%
    14:00 -11°C° 0.1 mm 6 m/S 749 mmHg 91%
    15:00 -11°C° 0.3 mm 6 m/S 749 mmHg 92%
    16:00 -11°C° 0.3 mm 5 m/S 748 mmHg 92%
    17:00 -11°C° 0.3 mm 5 m/S 748 mmHg 92%
    18:00 -11°C° 0.4 mm 6 m/S 748 mmHg 93%
    19:00 -12°C° 0.4 mm 6 m/S 747 mmHg 93%
    20:00 -12°C° 0.4 mm 6 m/S 747 mmHg 93%
    21:00 -12°C° 0.4 mm 6 m/S 747 mmHg 93%
    22:00 -12°C° 0.4 mm 5 m/S 746 mmHg 93%
    23:00 -12°C° 0.4 mm 5 m/S 746 mmHg 93%

    übermorgen, 24 Januar, Donnerstag

    Zeit Temperatur Niederschläge Wind Luftdruck Luftfeuchtigkeit
    00:00 -12°C° 0.1 mm 5 m/S 746 mmHg 93%
    01:00 -12°C° 0.1 mm 5 m/S 746 mmHg 92%
    02:00 -11°C° 0.1 mm 4 m/S 745 mmHg 92%
    03:00 -11°C° 0 mm 4 m/S 745 mmHg 93%
    04:00 -12°C° 0 mm 4 m/S 745 mmHg 93%
    05:00 -12°C° 0 mm 3 m/S 745 mmHg 93%
    06:00 -12°C° 0 mm 3 m/S 746 mmHg 94%
    07:00 -13°C° 0 mm 3 m/S 746 mmHg 94%
    08:00 -14°C° 0 mm 3 m/S 746 mmHg 95%
    09:00 -13°C° 0 mm 3 m/S 747 mmHg 94%
    10:00 -12°C° 0 mm 3 m/S 747 mmHg 94%
    11:00 -10°C° 0 mm 3 m/S 748 mmHg 93%
    12:00 -10°C° 0 mm 3 m/S 748 mmHg 92%
    13:00 -10°C° 0 mm 3 m/S 748 mmHg 91%
    14:00 -9°C° 0 mm 3 m/S 748 mmHg 90%
    15:00 -9°C° 0 mm 3 m/S 748 mmHg 91%
    16:00 -10°C° 0 mm 3 m/S 749 mmHg 92%
    17:00 -10°C° 0 mm 3 m/S 749 mmHg 93%
    18:00 -12°C° 0 mm 3 m/S 749 mmHg 93%
    19:00 -12°C° 0 mm 3 m/S 749 mmHg 94%
    20:00 -12°C° 0 mm 3 m/S 750 mmHg 94%
    21:00 -12°C° 0 mm 3 m/S 750 mmHg 94%
    22:00 -12°C° 0 mm 3 m/S 750 mmHg 94%
    23:00 -14°C° 0 mm 4 m/S 750 mmHg 94%

    25 Januar, Freitag

    Zeit Temperatur Niederschläge Wind Luftdruck Luftfeuchtigkeit
    00:00 -14°C° 0.2 mm 4 m/S 750 mmHg 94%
    01:00 -14°C° 0.2 mm 4 m/S 750 mmHg 95%
    02:00 -14°C° 0.2 mm 4 m/S 750 mmHg 95%
    03:00 -14°C° 0.5 mm 4 m/S 749 mmHg 95%
    04:00 -14°C° 0.5 mm 4 m/S 749 mmHg 95%
    05:00 -14°C° 0.5 mm 4 m/S 749 mmHg 95%
    06:00 -14°C° 0.3 mm 4 m/S 749 mmHg 95%
    07:00 -14°C° 0.3 mm 4 m/S 749 mmHg 95%
    08:00 -14°C° 0.3 mm 4 m/S 749 mmHg 95%
    09:00 -12°C° 0.4 mm 4 m/S 749 mmHg 94%
    10:00 -12°C° 0.4 mm 4 m/S 749 mmHg 94%
    11:00 -12°C° 0.4 mm 4 m/S 749 mmHg 94%
    12:00 -11°C° 0.2 mm 4 m/S 749 mmHg 93%
    13:00 -11°C° 0.2 mm 4 m/S 749 mmHg 93%
    14:00 -11°C° 0.2 mm 4 m/S 749 mmHg 93%
    15:00 -11°C° 0 mm 4 m/S 749 mmHg 93%
    16:00 -11°C° 0 mm 4 m/S 749 mmHg 93%
    17:00 -11°C° 0 mm 4 m/S 749 mmHg 93%
    18:00 -11°C° 0 mm 4 m/S 749 mmHg 93%
    19:00 -12°C° 0 mm 4 m/S 750 mmHg 93%
    20:00 -12°C° 0 mm 4 m/S 750 mmHg 93%
    21:00 -12°C° 0 mm 4 m/S 750 mmHg 93%
    22:00 -12°C° 0 mm 4 m/S 749 mmHg 93%
    23:00 -12°C° 0 mm 4 m/S 749 mmHg 93%

    26 Januar, Samstag

    Zeit Temperatur Niederschläge Wind Luftdruck Luftfeuchtigkeit
    00:00 -12°C° 0 mm 4 m/S 749 mmHg 93%
    01:00 -12°C° 0 mm 4 m/S 749 mmHg 93%
    02:00 -12°C° 0 mm 4 m/S 749 mmHg 93%
    03:00 -12°C° 0 mm 4 m/S 749 mmHg 93%
    04:00 -12°C° 0 mm 4 m/S 749 mmHg 94%
    05:00 -12°C° 0 mm 4 m/S 749 mmHg 94%
    06:00 -12°C° 0 mm 4 m/S 749 mmHg 94%
    07:00 -12°C° 0 mm 4 m/S 749 mmHg 93%
    08:00 -12°C° 0 mm 4 m/S 749 mmHg 93%
    09:00 -12°C° 0 mm 4 m/S 749 mmHg 93%
    10:00 -12°C° 0 mm 4 m/S 749 mmHg 93%
    11:00 -11°C° 0 mm 4 m/S 749 mmHg 93%
    12:00 -11°C° 0 mm 4 m/S 748 mmHg 93%
    13:00 -11°C° 0 mm 4 m/S 748 mmHg 93%
    14:00 -10°C° 0 mm 4 m/S 748 mmHg 93%
    15:00 -11°C° 0 mm 4 m/S 748 mmHg 93%
    16:00 -11°C° 0 mm 4 m/S 748 mmHg 93%
    17:00 -12°C° 0 mm 4 m/S 748 mmHg 93%
    18:00 -12°C° 0 mm 4 m/S 748 mmHg 93%
    19:00 -14°C° 0 mm 4 m/S 748 mmHg 93%
    20:00 -14°C° 0 mm 4 m/S 748 mmHg 93%
    21:00 -14°C° 0 mm 4 m/S 748 mmHg 94%
    22:00 -15°C° 0 mm 4 m/S 748 mmHg 94%
    23:00 -15°C° 0 mm 4 m/S 748 mmHg 94%

    27 Januar, Sonntag

    Zeit Temperatur Niederschläge Wind Luftdruck Luftfeuchtigkeit
    00:00 -15°C° 0 mm 4 m/S 748 mmHg 94%
    01:00 -15°C° 0 mm 4 m/S 749 mmHg 94%
    02:00 -16°C° 0 mm 4 m/S 749 mmHg 94%
    03:00 -16°C° 0 mm 4 m/S 749 mmHg 94%
    04:00 -16°C° 0 mm 4 m/S 749 mmHg 94%
    05:00 -17°C° 0 mm 4 m/S 748 mmHg 94%
    06:00 -17°C° 0 mm 4 m/S 749 mmHg 93%
    07:00 -18°C° 0 mm 4 m/S 749 mmHg 93%
    08:00 -18°C° 0 mm 4 m/S 749 mmHg 93%
    09:00 -18°C° 0 mm 4 m/S 749 mmHg 93%
    10:00 -18°C° 0 mm 4 m/S 749 mmHg 93%
    11:00 -18°C° 0 mm 4 m/S 749 mmHg 93%
    12:00 -18°C° 0 mm 4 m/S 749 mmHg 92%
    13:00 -17°C° 0 mm 4 m/S 749 mmHg 92%
    14:00 -16°C° 0 mm 4 m/S 749 mmHg 91%
    15:00 -17°C° 0 mm 4 m/S 749 mmHg 92%
    16:00 -18°C° 0 mm 4 m/S 749 mmHg 92%
    17:00 -18°C° 0 mm 4 m/S 750 mmHg 92%
    18:00 -19°C° 0 mm 4 m/S 750 mmHg 93%
    19:00 -20°C° 0 mm 4 m/S 750 mmHg 93%
    20:00 -22°C° 0 mm 4 m/S 751 mmHg 93%
    21:00 -22°C° 0 mm 4 m/S 751 mmHg 94%
    22:00 -23°C° 0 mm 4 m/S 751 mmHg 94%
    23:00 -24°C° 0 mm 4 m/S 752 mmHg 94%
    Mehr zeigen